TimeEDT,TemperatureF,Dew PointF,Humidity,Sea Level PressureIn,VisibilityMPH,Wind Direction,Wind SpeedMPH,Gust SpeedMPH,PrecipitationIn,Events,Conditions,WindDirDegrees,DateUTC
12:56 AM,23.0,12.0,63,29.93,-9999.0,WNW,12.7,25.3,N/A,,Unknown,300,2013-04-04 04:56:00
1:56 AM,23.0,10.9,60,29.95,-9999.0,WNW,10.4,27.6,N/A,,Unknown,300,2013-04-04 05:56:00
2:56 AM,21.9,10.0,60,29.98,-9999.0,NW,10.4,26.5,N/A,,Unknown,310,2013-04-04 06:56:00
3:56 AM,21.9,8.1,55,29.99,-9999.0,NW,10.4,27.6,N/A,,Unknown,310,2013-04-04 07:56:00
4:56 AM,21.0,7.0,55,29.99,-9999.0,NW,12.7,25.3,N/A,,Unknown,310,2013-04-04 08:56:00
5:56 AM,21.0,5.0,50,30.03,-9999.0,NW,12.7,27.6,N/A,,Unknown,310,2013-04-04 09:56:00
6:56 AM,21.0,5.0,50,30.04,-9999.0,NW,9.2,20.7,N/A,,Unknown,310,2013-04-04 10:56:00
7:56 AM,23.0,6.1,48,30.06,-9999.0,NW,15.0,27.6,N/A,,Unknown,310,2013-04-04 11:56:00
8:56 AM,27.0,6.1,41,30.07,-9999.0,Variable,6.9,-,N/A,,Unknown,0,2013-04-04 12:56:00
9:56 AM,30.0,6.1,36,30.09,-9999.0,NW,8.1,19.6,N/A,,Unknown,310,2013-04-04 13:56:00
10:56 AM,33.1,3.0,28,30.08,-9999.0,WNW,10.4,21.9,N/A,,Unknown,300,2013-04-04 14:56:00
1:56 PM,-9999,-9999,N/A,29.95,-9999.0,North,-9999.0,-,N/A,,Unknown,0,2013-04-04 17:56:00
2:56 PM,43.0,8.1,24,29.98,-9999.0,Variable,3.5,-,N/A,,Unknown,0,2013-04-04 18:56:00
3:56 PM,43.0,7.0,23,29.95,-9999.0,Variable,6.9,-,N/A,,Unknown,0,2013-04-04 19:56:00
4:56 PM,43.0,8.1,24,29.93,-9999.0,Variable,3.5,-,N/A,,Unknown,0,2013-04-04 20:56:00
5:56 PM,43.0,9.0,25,29.92,-9999.0,Variable,4.6,-,N/A,,Unknown,0,2013-04-04 21:56:00
6:56 PM,41.0,10.0,28,29.91,-9999.0,Variable,3.5,-,N/A,,Unknown,0,2013-04-04 22:56:00
7:56 PM,39.0,9.0,29,29.92,-9999.0,SSW,4.6,-,N/A,,Unknown,210,2013-04-04 23:56:00
8:56 PM,37.9,10.9,33,29.94,-9999.0,SSW,3.5,-,N/A,,Unknown,210,2013-04-05 00:56:00
9:56 PM,37.9,12.9,36,29.92,-9999.0,Calm,Calm,-,N/A,,Unknown,0,2013-04-05 01:56:00
10:56 PM,37.0,10.9,34,29.91,-9999.0,Calm,Calm,-,N/A,,Unknown,0,2013-04-05 02:56:00
11:56 PM,36.0,14.0,41,29.89,-9999.0,Calm,Calm,-,N/A,,Unknown,0,2013-04-05 03:56:00